ALK110 VCBI-VRMM

Flight info

Callsign ALK110
Flight time 1h 7m
Altitude 36000
Route LALUM DCT HOKEY HOKEY1A
Aircraft A21N/M-SDE3FGHIRWY/LB1

Departure

Time 2026-04-29 07:32
Airport Bandaranaike International Colombo Airport (VCBI)

Arrival

Time 2026-04-29 08:39
Airport Velana International Airport (VRMM)
Time Latitude Longitude Altitude Speed Heading
2026-04-29 07:01 7.17851 79.88580 48 ft 0 kts 39°
2026-04-29 07:01 7.17838 79.88569 47 ft 3 kts 39°
2026-04-29 07:02 7.17824 79.88557 47 ft 3 kts 39°
2026-04-29 07:02 7.17819 79.88553 48 ft 2 kts 39°
2026-04-29 07:03 7.17808 79.88544 47 ft 0 kts 40°
2026-04-29 07:03 7.17800 79.88538 47 ft 0 kts 33°
2026-04-29 07:03 7.17851 79.88580 48 ft 0 kts 39°
2026-04-29 07:21 7.17841 79.88570 48 ft 2 kts 39°
2026-04-29 07:21 7.17829 79.88561 47 ft 1 kts 39°
2026-04-29 07:21 7.17822 79.88555 47 ft 2 kts 32°
2026-04-29 07:22 7.17808 79.88550 47 ft 2 kts
2026-04-29 07:22 7.17793 79.88549 47 ft 2 kts 351°
2026-04-29 07:22 7.17778 79.88554 47 ft 2 kts 332°
2026-04-29 07:22 7.17766 79.88563 47 ft 1 kts 313°
2026-04-29 07:23 7.17763 79.88567 47 ft 1 kts 304°
2026-04-29 07:23 7.17760 79.88570 48 ft 0 kts 307°
2026-04-29 07:25 7.17762 79.88568 47 ft 1 kts 307°
2026-04-29 07:25 7.17772 79.88554 47 ft 3 kts 307°
2026-04-29 07:26 7.17794 79.88525 46 ft 6 kts 307°
2026-04-29 07:26 7.17827 79.88482 44 ft 9 kts 307°
2026-04-29 07:26 7.17878 79.88443 44 ft 10 kts 357°
2026-04-29 07:26 7.17939 79.88470 44 ft 9 kts 33°
2026-04-29 07:27 7.17991 79.88507 45 ft 8 kts 37°
2026-04-29 07:27 7.18043 79.88547 45 ft 10 kts 37°
2026-04-29 07:27 7.18107 79.88595 44 ft 12 kts 37°
2026-04-29 07:27 7.18179 79.88650 44 ft 13 kts 37°
2026-04-29 07:28 7.18255 79.88706 46 ft 13 kts 37°
2026-04-29 07:28 7.18346 79.88776 47 ft 20 kts 37°
2026-04-29 07:28 7.18480 79.88879 46 ft 24 kts 38°
2026-04-29 07:28 7.18615 79.88985 42 ft 24 kts 39°
2026-04-29 07:29 7.18748 79.89088 43 ft 23 kts 37°
2026-04-29 07:29 7.18878 79.89186 41 ft 22 kts 37°
2026-04-29 07:29 7.19001 79.89280 41 ft 21 kts 37°
2026-04-29 07:29 7.19114 79.89367 41 ft 18 kts 37°
2026-04-29 07:30 7.19225 79.89399 40 ft 17 kts 327°
2026-04-29 07:30 7.19293 79.89300 39 ft 12 kts 262°
2026-04-29 07:30 7.19269 79.89262 39 ft 0 kts 219°
2026-04-29 07:31 7.18971 79.89029 42 ft 86 kts 218°
2026-04-29 07:31 7.18317 79.88530 42 ft 145 kts 217°
2026-04-29 07:31 7.17381 79.87824 67 ft 189 kts 217°
2026-04-29 07:31 7.16271 79.86984 462 ft 202 kts 219°
2026-04-29 07:32 7.15218 79.86171 1422 ft 188 kts 219°
2026-04-29 07:32 7.14206 79.85385 2043 ft 188 kts 220°
2026-04-29 07:32 7.13127 79.84542 2367 ft 204 kts 220°
2026-04-29 07:32 7.11973 79.83645 2752 ft 218 kts 219°
2026-04-29 07:33 7.10724 79.82678 3057 ft 237 kts 219°
2026-04-29 07:33 7.09347 79.81615 3400 ft 257 kts 219°
2026-04-29 07:33 7.07892 79.80496 3910 ft 269 kts 218°
2026-04-29 07:33 7.06407 79.79357 4664 ft 271 kts 218°
2026-04-29 07:34 7.04930 79.78225 5419 ft 273 kts 218°
2026-04-29 07:34 7.03418 79.77065 6160 ft 275 kts 218°
2026-04-29 07:34 7.01886 79.75890 6891 ft 278 kts 218°
2026-04-29 07:34 7.00347 79.74712 7609 ft 281 kts 219°
2026-04-29 07:35 6.98808 79.73531 8319 ft 284 kts 219°
2026-04-29 07:35 6.97242 79.72330 9030 ft 286 kts 219°
2026-04-29 07:35 6.95649 79.71108 9734 ft 289 kts 219°
2026-04-29 07:35 6.94064 79.69892 10378 ft 293 kts 219°
2026-04-29 07:36 6.92390 79.68606 10725 ft 309 kts 219°
2026-04-29 07:36 6.90632 79.67255 11021 ft 325 kts 219°
2026-04-29 07:36 6.88788 79.65838 11305 ft 341 kts 220°
2026-04-29 07:36 6.86962 79.64275 11589 ft 355 kts 226°
2026-04-29 07:37 6.85249 79.62479 12084 ft 360 kts 231°
2026-04-29 07:37 6.83703 79.60483 12721 ft 362 kts 237°
2026-04-29 07:37 6.82353 79.58334 13333 ft 365 kts 241°
2026-04-29 07:37 6.81010 79.56162 13916 ft 369 kts 238°
2026-04-29 07:38 6.79502 79.54077 14484 ft 374 kts 235°
2026-04-29 07:38 6.77902 79.52003 15054 ft 378 kts 234°
2026-04-29 07:38 6.76250 79.49894 15615 ft 383 kts 234°
2026-04-29 07:38 6.74615 79.47813 16154 ft 387 kts 234°
2026-04-29 07:39 6.72931 79.45673 16697 ft 391 kts 234°
2026-04-29 07:39 6.71235 79.43517 17229 ft 395 kts 234°
2026-04-29 07:39 6.69527 79.41348 17749 ft 399 kts 234°
2026-04-29 07:39 6.67807 79.39162 18260 ft 403 kts 234°
2026-04-29 07:40 6.66045 79.36924 18769 ft 407 kts 234°
2026-04-29 07:40 6.64299 79.34706 19261 ft 411 kts 234°
2026-04-29 07:40 6.62514 79.32439 19755 ft 415 kts 234°
2026-04-29 07:40 6.60709 79.30146 20244 ft 419 kts 234°
2026-04-29 07:41 6.58908 79.27860 20717 ft 423 kts 234°
2026-04-29 07:41 6.57076 79.25534 21185 ft 427 kts 234°
2026-04-29 07:41 6.55242 79.23207 21645 ft 430 kts 234°
2026-04-29 07:41 6.53375 79.20837 22102 ft 434 kts 234°
2026-04-29 07:42 6.51482 79.18436 22548 ft 438 kts 234°
2026-04-29 07:42 6.49593 79.16038 22981 ft 442 kts 233°
2026-04-29 07:42 6.47666 79.13593 23407 ft 445 kts 233°
2026-04-29 07:42 6.45737 79.11147 23814 ft 448 kts 233°
2026-04-29 07:43 6.43815 79.08710 24192 ft 452 kts 233°
2026-04-29 07:43 6.41859 79.06230 24569 ft 456 kts 233°
2026-04-29 07:43 6.39867 79.03705 24948 ft 459 kts 233°
2026-04-29 07:43 6.37891 79.01197 25312 ft 462 kts 227°
2026-04-29 07:44 6.35934 78.98676 25974 ft 455 kts 229°
2026-04-29 07:44 6.33989 78.96219 26639 ft 449 kts 229°
2026-04-29 07:44 6.32037 78.93767 26994 ft 451 kts 229°
2026-04-29 07:44 6.30058 78.91277 27258 ft 455 kts 229°
2026-04-29 07:45 6.28154 78.88758 27526 ft 459 kts 231°
2026-04-29 07:45 6.26330 78.86108 27838 ft 461 kts 233°
2026-04-29 07:45 6.24520 78.83428 28230 ft 461 kts 233°
2026-04-29 07:45 6.22846 78.80708 28597 ft 463 kts 241°
2026-04-29 07:46 6.21565 78.77746 28962 ft 465 kts 246°
2026-04-29 07:46 6.20420 78.74680 29320 ft 466 kts 247°
2026-04-29 07:46 6.19295 78.71647 29649 ft 466 kts 247°
2026-04-29 07:46 6.18129 78.68604 29978 ft 466 kts 246°
2026-04-29 07:47 6.16937 78.65586 30307 ft 466 kts 246°
2026-04-29 07:47 6.15722 78.62563 30629 ft 466 kts 245°
2026-04-29 07:47 6.14503 78.59552 30947 ft 466 kts 246°
2026-04-29 07:47 6.13315 78.56543 31260 ft 466 kts 246°
2026-04-29 07:48 6.12097 78.53539 31563 ft 466 kts 245°
2026-04-29 07:48 6.10865 78.50516 31863 ft 466 kts 245°
2026-04-29 07:48 6.09633 78.47519 32151 ft 466 kts 245°
2026-04-29 07:48 6.08398 78.44534 32431 ft 466 kts 245°
2026-04-29 07:49 6.07139 78.41502 32713 ft 466 kts 245°
2026-04-29 07:49 6.05888 78.38500 32978 ft 466 kts 245°
2026-04-29 07:49 6.04635 78.35496 33236 ft 466 kts 245°
2026-04-29 07:49 6.03395 78.32527 33480 ft 466 kts 245°
2026-04-29 07:50 6.02134 78.29508 33723 ft 466 kts 245°
2026-04-29 07:50 6.00892 78.26540 33949 ft 466 kts 245°
2026-04-29 07:50 5.99631 78.23525 34164 ft 466 kts 246°
2026-04-29 07:50 5.98391 78.20557 34349 ft 467 kts 246°
2026-04-29 07:51 5.97133 78.17550 34525 ft 467 kts 246°
2026-04-29 07:51 5.95875 78.14541 34703 ft 468 kts 245°
2026-04-29 07:51 5.94622 78.11546 34874 ft 468 kts 245°
2026-04-29 07:51 5.93347 78.08501 35038 ft 469 kts 246°
2026-04-29 07:52 5.92091 78.05501 35197 ft 470 kts 245°
2026-04-29 07:52 5.90833 78.02493 35358 ft 470 kts 246°
2026-04-29 07:52 5.89560 77.99455 35509 ft 471 kts 246°
2026-04-29 07:52 5.88295 77.96435 35640 ft 472 kts 246°
2026-04-29 07:53 5.85746 77.90350 35840 ft 474 kts 246°
2026-04-29 07:53 5.83198 77.84271 35861 ft 473 kts 246°
2026-04-29 07:54 5.80640 77.78171 35863 ft 473 kts 246°
2026-04-29 07:54 5.78090 77.72089 35864 ft 473 kts 246°
2026-04-29 07:55 5.75554 77.66047 35864 ft 473 kts 246°
2026-04-29 07:55 5.73001 77.59961 35864 ft 473 kts 246°
2026-04-29 07:56 5.70451 77.53889 35864 ft 473 kts 246°
2026-04-29 07:56 5.67897 77.47807 35864 ft 473 kts 246°
2026-04-29 07:57 5.65350 77.41745 35863 ft 473 kts 246°
2026-04-29 07:57 5.62798 77.35672 35864 ft 473 kts 246°
2026-04-29 07:58 5.60254 77.29619 35863 ft 473 kts 245°
2026-04-29 07:58 5.57694 77.23532 35864 ft 473 kts 245°
2026-04-29 07:59 5.55142 77.17468 35864 ft 473 kts 245°
2026-04-29 07:59 5.52578 77.11374 35864 ft 473 kts 245°
2026-04-29 08:00 5.50031 77.05321 35864 ft 473 kts 245°
2026-04-29 08:00 5.47471 76.99243 35864 ft 473 kts 245°
2026-04-29 08:01 5.44917 76.93177 35864 ft 473 kts 245°
2026-04-29 08:01 5.42346 76.87075 35864 ft 474 kts 245°
2026-04-29 08:02 5.39782 76.80992 35864 ft 475 kts 245°
2026-04-29 08:02 5.37226 76.74931 35864 ft 475 kts 245°
2026-04-29 08:03 5.34641 76.68803 35869 ft 475 kts 245°
2026-04-29 08:03 5.32073 76.62717 35881 ft 475 kts 245°
2026-04-29 08:04 5.29506 76.56635 35899 ft 475 kts 245°
2026-04-29 08:04 5.26936 76.50549 35921 ft 475 kts 245°
2026-04-29 08:05 5.24352 76.44426 35936 ft 475 kts 245°
2026-04-29 08:05 5.21781 76.38341 35942 ft 475 kts 245°
2026-04-29 08:06 5.19220 76.32279 35944 ft 475 kts 245°
2026-04-29 08:06 5.16646 76.26191 35945 ft 474 kts 245°
2026-04-29 08:07 5.14066 76.20088 35945 ft 475 kts 245°
2026-04-29 08:07 5.11520 76.14035 35945 ft 475 kts 246°
2026-04-29 08:08 5.09364 76.07763 35946 ft 475 kts 252°
2026-04-29 08:08 5.07436 76.01445 35946 ft 474 kts 252°
2026-04-29 08:09 5.05516 75.95152 35946 ft 472 kts 252°
2026-04-29 08:09 5.03577 75.88825 35946 ft 471 kts 252°
2026-04-29 08:10 5.01688 75.82674 35946 ft 468 kts 253°
2026-04-29 08:10 4.99779 75.76459 35946 ft 467 kts 253°
2026-04-29 08:11 4.97843 75.70165 35946 ft 465 kts 252°
2026-04-29 08:11 4.95584 75.64136 35946 ft 463 kts 246°
2026-04-29 08:12 4.92612 75.58350 35946 ft 462 kts 240°
2026-04-29 08:12 4.89420 75.52798 35945 ft 462 kts 240°
2026-04-29 08:13 4.86213 75.47222 35943 ft 462 kts 240°
2026-04-29 08:13 4.83025 75.41659 35932 ft 462 kts 240°
2026-04-29 08:14 4.79815 75.36052 35923 ft 462 kts 240°
2026-04-29 08:14 4.76621 75.30472 35920 ft 462 kts 240°
2026-04-29 08:15 4.73424 75.24884 35919 ft 462 kts 240°
2026-04-29 08:15 4.70252 75.19345 35919 ft 462 kts 240°
2026-04-29 08:16 4.67055 75.13767 35918 ft 462 kts 240°
2026-04-29 08:16 4.63855 75.08184 35684 ft 463 kts 240°
2026-04-29 08:17 4.62233 75.05353 34956 ft 468 kts 240°
2026-04-29 08:17 4.60619 75.02535 33978 ft 476 kts 239°
2026-04-29 08:17 4.58945 74.99617 32948 ft 484 kts 240°
2026-04-29 08:17 4.57284 74.96725 31979 ft 489 kts 240°
2026-04-29 08:18 4.55574 74.93739 31027 ft 494 kts 238°
2026-04-29 08:18 4.53900 74.90786 30212 ft 493 kts 238°
2026-04-29 08:18 4.52190 74.87794 29445 ft 492 kts 237°
2026-04-29 08:18 4.50491 74.84835 28659 ft 490 kts 237°
2026-04-29 08:19 4.48799 74.81892 27851 ft 489 kts 237°
2026-04-29 08:19 4.47119 74.78968 27061 ft 487 kts 237°
2026-04-29 08:19 4.45441 74.76047 26466 ft 480 kts 236°
2026-04-29 08:19 4.43807 74.73202 25931 ft 473 kts 236°
2026-04-29 08:20 4.42227 74.70448 25420 ft 466 kts 236°
2026-04-29 08:20 4.40616 74.67641 24872 ft 459 kts 236°
2026-04-29 08:20 4.39047 74.64907 24317 ft 453 kts 236°
2026-04-29 08:20 4.37497 74.62209 23762 ft 447 kts 236°
2026-04-29 08:21 4.35954 74.59524 23212 ft 442 kts 236°
2026-04-29 08:21 4.34433 74.56874 22666 ft 436 kts 236°
2026-04-29 08:21 4.32932 74.54261 22112 ft 430 kts 237°
2026-04-29 08:21 4.31451 74.51684 21561 ft 425 kts 237°
2026-04-29 08:22 4.29994 74.49148 21007 ft 420 kts 237°
2026-04-29 08:22 4.28544 74.46625 20451 ft 414 kts 237°
2026-04-29 08:22 4.27140 74.44183 19903 ft 409 kts 237°
2026-04-29 08:22 4.25717 74.41708 19337 ft 404 kts 237°
2026-04-29 08:23 4.24327 74.39289 18774 ft 399 kts 237°
2026-04-29 08:23 4.22963 74.36918 18212 ft 395 kts 238°
2026-04-29 08:23 4.21597 74.34542 17641 ft 390 kts 238°
2026-04-29 08:23 4.20260 74.32217 17085 ft 386 kts 238°
2026-04-29 08:24 4.18923 74.29892 16453 ft 383 kts 238°
2026-04-29 08:24 4.17609 74.27608 15870 ft 380 kts 239°
2026-04-29 08:24 4.16298 74.25329 15345 ft 374 kts 239°
2026-04-29 08:24 4.15015 74.23096 14848 ft 369 kts 239°
2026-04-29 08:25 4.13739 74.20878 14362 ft 364 kts 240°
2026-04-29 08:25 4.12498 74.18718 13890 ft 359 kts 240°
2026-04-29 08:25 4.11257 74.16560 13413 ft 354 kts 240°
2026-04-29 08:25 4.10049 74.14460 12952 ft 350 kts 240°
2026-04-29 08:26 4.08846 74.12368 12494 ft 345 kts 241°
2026-04-29 08:26 4.07654 74.10296 12044 ft 341 kts 241°
2026-04-29 08:26 4.06471 74.08234 11596 ft 337 kts 241°
2026-04-29 08:26 4.05323 74.06226 11160 ft 334 kts 240°
2026-04-29 08:27 4.04167 74.04209 10847 ft 325 kts 240°
2026-04-29 08:27 4.03064 74.02290 10693 ft 312 kts 239°
2026-04-29 08:27 4.02012 74.00462 10545 ft 299 kts 239°
2026-04-29 08:27 4.00990 73.98686 10403 ft 287 kts 239°
2026-04-29 08:28 4.00014 73.96989 10270 ft 275 kts 239°
2026-04-29 08:28 3.99073 73.95354 10148 ft 263 kts 239°
2026-04-29 08:28 3.98188 73.93816 10042 ft 255 kts 239°
2026-04-29 08:28 3.97306 73.92284 9867 ft 253 kts 238°
2026-04-29 08:29 3.96428 73.90757 9552 ft 252 kts 238°
2026-04-29 08:29 3.95584 73.89235 9248 ft 251 kts 243°
2026-04-29 08:29 3.95049 73.87575 8937 ft 253 kts 256°
2026-04-29 08:29 3.94900 73.85809 8597 ft 255 kts 265°
2026-04-29 08:30 3.94892 73.84056 8308 ft 255 kts 266°
2026-04-29 08:30 3.94909 73.80475 7690 ft 256 kts 265°
2026-04-29 08:30 3.94913 73.78702 7377 ft 257 kts 265°
2026-04-29 08:31 3.94915 73.76904 7057 ft 257 kts 265°
2026-04-29 08:31 3.94915 73.75118 6742 ft 258 kts 266°
2026-04-29 08:31 3.94915 73.73325 6425 ft 256 kts 266°
2026-04-29 08:31 3.94915 73.71542 6111 ft 254 kts 266°
2026-04-29 08:32 3.94915 73.69768 5801 ft 255 kts 266°
2026-04-29 08:32 3.94914 73.67986 5537 ft 254 kts 266°
2026-04-29 08:32 3.94914 73.66228 5504 ft 256 kts 266°
2026-04-29 08:32 3.94915 73.64432 5473 ft 257 kts 266°
2026-04-29 08:33 3.94912 73.62635 5189 ft 256 kts 266°
2026-04-29 08:33 3.94909 73.60875 4926 ft 255 kts 266°
2026-04-29 08:33 3.94905 73.59091 4669 ft 255 kts 267°
2026-04-29 08:33 3.94902 73.57323 4421 ft 255 kts 267°
2026-04-29 08:34 3.94898 73.55531 4174 ft 254 kts 267°
2026-04-29 08:34 3.95145 73.53824 3996 ft 256 kts 292°
2026-04-29 08:34 3.96181 73.52377 3781 ft 261 kts 321°
2026-04-29 08:34 3.97784 73.51592 3412 ft 257 kts 352°
2026-04-29 08:35 3.99531 73.51676 3125 ft 249 kts 17°
2026-04-29 08:35 4.01170 73.52181 2863 ft 243 kts 22°
2026-04-29 08:35 4.02751 73.52725 2578 ft 241 kts 19°
2026-04-29 08:35 4.04384 73.53055 2262 ft 241 kts
2026-04-29 08:36 4.06057 73.53142 2038 ft 236 kts
2026-04-29 08:36 4.07668 73.53127 1999 ft 227 kts
2026-04-29 08:36 4.09189 73.53108 1900 ft 216 kts
2026-04-29 08:36 4.10677 73.53100 1588 ft 212 kts
2026-04-29 08:37 4.12145 73.53099 1283 ft 209 kts
2026-04-29 08:37 4.13573 73.53099 999 ft 204 kts
2026-04-29 08:37 4.14961 73.53099 768 ft 193 kts
2026-04-29 08:37 4.16278 73.53098 488 ft 181 kts
2026-04-29 08:38 4.17475 73.53097 250 ft 164 kts
2026-04-29 08:38 4.18555 73.53099 38 ft 147 kts
2026-04-29 08:38 4.19506 73.53111 15 ft 117 kts
2026-04-29 08:38 4.20168 73.53104 11 ft 70 kts
2026-04-29 08:39 4.20364 73.52984 12 ft 24 kts 270°